Location: ???????
(55.4362°N, 38.1183°E)
Time: 17:41:48
(UTC+00:00)

Cosmos 2333 Rocket - Pass Details

Date: 24 October 2021
Orbit: 837 x 865 km, 70.8° (Epoch: 04 December)

Event Time Altitude Azimuth Distance (km) Brightness Sun altitude
Exits shadow 01:43:07 12° 326° (NW) 2,395 4.3 -22.2°
Maximum altitude 01:48:37 84° 55° (NE) 874 2.2 -21.4°
Drops below altitude 10° 01:54:24 10° 145° (SE) 2,503 5.0 -20.6°
Sets 01:56:51 0° 146° (SE) 3,438 5.7 -20.3°
